TimeEST,TemperatureF,Dew PointF,Humidity,Sea Level PressureIn,VisibilityMPH,Wind Direction,Wind SpeedMPH,Gust SpeedMPH,PrecipitationIn,Events,Conditions,WindDirDegrees,DateUTC
12:54 AM,16.0,5.0,62,30.19,10.0,SW,10.4,-,0.00,Snow,Light Snow,230,2014-02-09 05:54:00
1:54 AM,15.1,6.1,68,30.19,9.0,SW,6.9,-,0.00,Snow,Light Snow,220,2014-02-09 06:54:00
2:54 AM,16.0,7.0,68,30.19,9.0,SW,9.2,-,0.00,Snow,Light Snow,230,2014-02-09 07:54:00
3:16 AM,15.8,8.6,73,30.17,2.5,WSW,10.4,-,0.00,Snow,Light Snow,240,2014-02-09 08:16:00
3:50 AM,14.0,10.4,86,30.17,3.0,SW,5.8,-,0.00,Snow,Light Snow,230,2014-02-09 08:50:00
3:54 AM,14.0,10.0,84,30.19,3.0,SW,6.9,-,0.00,Snow,Light Snow,230,2014-02-09 08:54:00
4:54 AM,12.9,9.0,84,30.18,9.0,Calm,Calm,-,0.00,Snow,Light Snow,0,2014-02-09 09:54:00
5:54 AM,14.0,9.0,80,30.18,9.0,SSW,3.5,-,0.00,Snow,Light Snow,210,2014-02-09 10:54:00
6:54 AM,14.0,9.0,80,30.17,9.0,Calm,Calm,-,0.00,Snow,Light Snow,0,2014-02-09 11:54:00
7:54 AM,14.0,9.0,80,30.17,9.0,SSE,3.5,-,0.00,Snow,Light Snow,150,2014-02-09 12:54:00
8:32 AM,14.0,8.6,79,30.17,3.0,SSE,3.5,-,0.00,Snow,Light Snow,160,2014-02-09 13:32:00
8:54 AM,14.0,9.0,80,30.18,4.0,SE,3.5,-,0.00,Snow,Light Snow,130,2014-02-09 13:54:00
9:54 AM,16.0,8.1,71,30.18,10.0,SSW,3.5,-,0.00,,Mostly Cloudy,200,2014-02-09 14:54:00
10:54 AM,18.0,8.1,65,30.14,10.0,SSE,3.5,-,N/A,,Overcast,150,2014-02-09 15:54:00
11:54 AM,19.0,8.1,62,30.09,10.0,ESE,4.6,-,0.00,Snow,Light Snow,120,2014-02-09 16:54:00
12:54 PM,21.0,9.0,60,30.04,9.0,East,3.5,-,0.00,Snow,Light Snow,80,2014-02-09 17:54:00
1:54 PM,21.0,10.9,65,30.01,4.0,Calm,Calm,-,0.00,Snow,Light Snow,0,2014-02-09 18:54:00
2:05 PM,19.4,12.2,74,29.99,2.0,Calm,Calm,-,0.00,Snow,Light Snow,0,2014-02-09 19:05:00
2:22 PM,19.4,15.8,86,29.98,1.5,Calm,Calm,-,0.00,Snow,Light Snow,0,2014-02-09 19:22:00
2:54 PM,19.9,16.0,85,29.99,1.0,East,4.6,-,0.00,Snow,Light Snow,80,2014-02-09 19:54:00
3:18 PM,19.4,15.8,86,29.97,1.0,East,4.6,-,0.01,Snow,Light Snow,90,2014-02-09 20:18:00
3:51 PM,19.4,15.8,86,29.97,0.8,East,4.6,-,0.02,Snow,Light Snow,90,2014-02-09 20:51:00
3:54 PM,19.0,16.0,88,29.98,0.8,East,5.8,-,0.02,Snow,Light Snow,90,2014-02-09 20:54:00
4:19 PM,19.4,17.6,93,29.96,0.8,ENE,3.5,-,0.01,Snow,Light Snow,60,2014-02-09 21:19:00
4:49 PM,19.4,15.8,86,29.96,1.0,ENE,4.6,-,0.02,Snow,Light Snow,60,2014-02-09 21:49:00
4:54 PM,19.0,17.1,92,29.97,1.0,East,5.8,-,0.02,Snow,Light Snow,80,2014-02-09 21:54:00
5:07 PM,19.4,15.8,86,29.96,0.8,East,5.8,-,0.01,Snow,Light Snow,80,2014-02-09 22:07:00
5:50 PM,19.4,17.6,93,29.96,1.2,ENE,3.5,-,0.02,Snow,Light Snow,70,2014-02-09 22:50:00
5:54 PM,19.0,17.1,92,29.98,1.2,ENE,3.5,-,0.03,Snow,Light Snow,70,2014-02-09 22:54:00
6:40 PM,19.4,17.6,93,29.95,1.2,Calm,Calm,-,0.01,Snow,Light Snow,0,2014-02-09 23:40:00
6:54 PM,19.0,17.1,92,29.97,2.0,Calm,Calm,-,0.01,Snow,Light Snow,0,2014-02-09 23:54:00
7:18 PM,19.4,15.8,86,29.96,1.5,Calm,Calm,-,0.01,Snow,Light Snow,0,2014-02-10 00:18:00
7:30 PM,19.4,17.6,93,29.96,2.5,Calm,Calm,-,0.01,Snow,Light Snow,0,2014-02-10 00:30:00
7:34 PM,19.4,17.6,93,29.96,3.0,Calm,Calm,-,0.01,Snow,Light Snow,0,2014-02-10 00:34:00
7:54 PM,19.0,16.0,88,29.97,3.0,Calm,Calm,-,0.02,Snow,Light Snow,0,2014-02-10 00:54:00
8:04 PM,19.4,17.6,93,29.96,2.0,Calm,Calm,-,0.00,Snow,Light Snow,0,2014-02-10 01:04:00
8:25 PM,19.4,17.6,93,29.96,1.8,Calm,Calm,-,0.00,Snow,Light Snow,0,2014-02-10 01:25:00
8:49 PM,19.4,17.6,93,29.97,1.5,Calm,Calm,-,0.00,Snow,Light Snow,0,2014-02-10 01:49:00
8:54 PM,19.0,17.1,92,29.98,1.2,Calm,Calm,-,0.00,Snow,Light Snow,0,2014-02-10 01:54:00
9:08 PM,19.4,15.8,86,29.97,2.0,Calm,Calm,-,0.00,Snow,Light Snow,0,2014-02-10 02:08:00
9:39 PM,17.6,15.8,93,29.98,3.0,West,4.6,-,0.00,Snow,Light Snow,260,2014-02-10 02:39:00
9:54 PM,18.0,16.0,92,30.00,3.0,WSW,5.8,-,0.00,Snow,Light Snow,250,2014-02-10 02:54:00
10:54 PM,18.0,15.1,88,30.01,5.0,West,15.0,-,0.00,Snow,Light Snow,260,2014-02-10 03:54:00
11:13 PM,17.6,15.8,93,30.00,4.0,WSW,15.0,-,0.00,Snow,Light Snow,250,2014-02-10 04:13:00
11:23 PM,17.6,15.8,93,30.00,2.0,WSW,15.0,-,0.00,Snow,Light Snow,250,2014-02-10 04:23:00
11:30 PM,17.6,15.8,93,30.00,1.5,WSW,13.8,-,0.01,Snow,Light Snow,250,2014-02-10 04:30:00
11:37 PM,17.6,15.8,93,30.00,2.0,WSW,15.0,-,0.01,Snow,Light Snow,250,2014-02-10 04:37:00
11:46 PM,17.6,14.0,86,30.00,4.0,WSW,16.1,-,0.01,Snow,Light Snow,250,2014-02-10 04:46:00
11:54 PM,17.1,14.0,88,30.01,5.0,WSW,17.3,-,0.01,Snow,Light Snow,250,2014-02-10 04:54:00